DW9186 Weather Reports


Display with metric or nautical units.
time (UTC)temp
F
wind
direction
speed
MPH
gust
MPH
rain 1hr
in
rain 24hr
in
rain mn
in
humidity
%
barometer
mb
20260505172603 76 272 2.0 5.0 0.00 0.00 0.00 42 1012.9
20260505172102 76 61 2.0 9.0 0.00 0.00 0.00 43 1012.9
20260505170603 76 255 1.0 3.0 0.00 0.00 0.00 43 1013.2
20260505165602 78 264 2.0 3.0 0.00 0.00 0.00 41 1013.1
20260505165103 78 115 1.0 3.0 0.00 0.00 0.00 41 1013.2
20260505164602 77 40 1.0 5.0 0.00 0.00 0.00 43 1013.1
20260505163602 78 276 3.0 3.0 0.00 0.00 0.00 43 1013.2
20260505162102 78 245 2.0 7.0 0.00 0.00 0.00 42 1013.3
20260505161602 77 118 1.0 3.0 0.00 0.00 0.00 46 1013.2
20260505161103 77 257 2.0 3.0 0.00 0.00 0.00 44 1013.1
20260505160603 77 257 3.0 7.0 0.00 0.00 0.00 44 1013.1
20260505153103 75 180 1.0 3.0 0.00 0.00 0.00 52 1013.1
20260505152603 74 71 1.0 3.0 0.00 0.00 0.00 53 1013.1
20260505152102 74 197 1.0 2.0 0.00 0.00 0.00 53 1013.1
20260505151103 74 107 3.0 7.0 0.00 0.00 0.00 55 1013.2
20260505150603 73 262 1.0 3.0 0.00 0.00 0.00 56 1013.4
20260505140603 68 174 0.0 2.0 0.00 0.00 0.00 65 1013.4
20260505130104 62 107 0.0 2.0 0.00 0.00 0.00 73 1013.5
20260505124603 60 77 1.0 3.0 0.00 0.00 0.00 76 1013.2
20260505124103 60 79 1.0 3.0 0.00 0.00 0.00 79 1013.3
20260505123603 59 79 2.0 5.0 0.00 0.00 0.00 81 1013.3
20260505123103 58 191 1.0 3.0 0.00 0.00 0.00 82 1013.3
20260505121103 57 200 0.0 0.0 0.00 0.00 0.00 84 1013.3
20260505115603 57 200 0.0 0.0 0.00 0.00 0.00 83 1013.0
20260505115103 57 200 0.0 1.0 0.00 0.00 0.00 83 1012.9
20260505114103 57 200 0.0 0.0 0.00 0.00 0.00 81 1012.5
20260505113603 57 200 0.0 0.0 0.00 0.00 0.00 81 1012.4
20260505113103 57 200 0.0 0.0 0.00 0.00 0.00 81 1012.3
20260505112103 57 200 0.0 0.0 0.00 0.00 0.00 81 1012.3
20260505111603 57 200 0.0 1.0 0.00 0.00 0.00 80 1012.3
20260505111103 57 200 0.0 1.0 0.00 0.00 0.00 80 1012.3
20260505110603 57 200 0.0 0.0 0.00 0.00 0.00 81 1012.2
20260505101603 59 200 0.0 0.0 0.00 0.00 0.00 74 1011.6
20260505101103 59 200 0.0 0.0 0.00 0.00 0.00 73 1011.5
20260505100603 59 200 0.0 0.0 0.00 0.00 0.00 73 1011.6
20260505100104 59 200 0.0 0.0 0.00 0.00 0.00 73 1011.6
20260505095103 59 200 0.0 1.0 0.00 0.00 0.00 72 1011.4
20260505093604 59 200 0.0 1.0 0.00 0.00 0.00 72 1011.3
20260505093103 59 200 0.0 1.0 0.00 0.00 0.00 72 1011.3
20260505092603 59 200 0.0 1.0 0.00 0.00 0.00 72 1011.4
20260505092103 59 200 0.0 0.0 0.00 0.00 0.00 72 1011.4
20260505091603 59 200 0.0 1.0 0.00 0.00 0.00 72 1011.4
20260505091103 59 200 0.0 0.0 0.00 0.00 0.00 72 1011.5
20260505090603 58 200 0.0 1.0 0.00 0.00 0.00 72 1011.5
20260505085103 58 200 0.0 0.0 0.00 0.00 0.00 72 1011.6
20260505084603 58 200 0.0 0.0 0.00 0.00 0.00 72 1011.6
20260505083603 58 200 0.0 0.0 0.00 0.00 0.00 72 1011.5
20260505082603 58 200 0.0 0.0 0.00 0.00 0.00 72 1011.4
20260505082103 58 200 0.0 0.0 0.00 0.00 0.00 71 1011.5
20260505081603 58 200 0.0 0.0 0.00 0.00 0.00 72 1011.6
20260505081103 58 200 0.0 0.0 0.00 0.00 0.00 73 1011.6
20260505080603 59 200 0.0 0.0 0.00 0.00 0.00 73 1011.7
20260505080103 59 200 0.0 0.0 0.00 0.00 0.00 73 1011.8
20260505075602 59 200 0.0 0.0 0.00 0.00 0.00 73 1011.9
20260505075103 59 200 0.0 0.0 0.00 0.00 0.00 71 1011.9
20260505074603 59 200 0.0 0.0 0.00 0.00 0.00 72 1012.0
20260505074103 59 200 0.0 0.0 0.00 0.00 0.00 72 1012.1
20260505073603 60 200 0.0 0.0 0.00 0.00 0.00 71 1012.1
20260505073103 60 200 0.0 1.0 0.00 0.00 0.00 71 1012.1
20260505072603 60 200 0.0 1.0 0.00 0.00 0.00 69 1012.1
20260505072103 60 200 0.0 0.0 0.00 0.00 0.00 68 1012.0
20260505071603 60 200 0.0 0.0 0.00 0.00 0.00 67 1011.9
20260505071103 61 200 0.0 0.0 0.00 0.00 0.00 67 1011.9
20260505070603 61 200 0.0 0.0 0.00 0.00 0.00 67 1012.0
20260505065604 61 200 0.0 0.0 0.00 0.00 0.00 65 1012.0
20260505065103 61 200 0.0 0.0 0.00 0.00 0.00 65 1012.1
20260505064103 62 200 0.0 0.0 0.00 0.00 0.00 64 1012.1
20260505063603 62 200 0.0 0.0 0.00 0.00 0.00 65 1012.1
20260505063103 62 200 0.0 1.0 0.00 0.00 0.00 63 1012.2
20260505062603 62 200 0.0 1.0 0.00 0.00 0.00 63 1012.2
20260505062103 62 200 0.0 1.0 0.00 0.00 0.00 63 1012.2
20260505061603 62 200 0.0 0.0 0.00 0.00 0.00 64 1012.3
20260505061104 63 200 0.0 1.0 0.00 0.00 0.00 64 1012.3
20260505060604 63 200 0.0 0.0 0.00 0.00 0.00 63 1012.2
20260505055604 63 200 0.0 1.0 0.00 0.00 0.00 63 1012.3
20260505055103 63 200 0.0 1.0 0.00 0.00 0.00 63 1012.3
20260505054103 62 200 0.0 1.0 0.00 0.00 0.00 64 1012.3
20260505053603 62 200 1.0 1.0 0.00 0.00 0.00 64 1012.4
20260505053103 62 200 1.0 1.0 0.00 0.00 0.00 65 1012.4
20260505052603 62 200 0.0 0.0 0.00 0.00 0.00 65 1012.4
20260505052103 62 200 0.0 0.0 0.00 0.00 0.00 65 1012.4
20260505051604 62 200 0.0 1.0 0.00 0.00 0.00 66 1012.5
20260505051105 62 200 0.0 1.0 0.00 0.00 0.00 66 1012.5
20260505050603 62 200 0.0 1.0 0.00 0.00 0.00 66 1012.5
20260505050104 62 200 0.0 2.0 0.00 0.00 0.00 66 1012.6
20260505040603 60 200 0.0 0.0 0.00 0.00 0.00 75 1012.4
20260505040104 60 200 0.0 0.0 0.00 0.00 0.00 75 1012.4
20260505035604 60 200 0.0 0.0 0.00 0.00 0.00 75 1012.4
20260505034604 60 200 0.0 0.0 0.00 0.00 0.00 74 1012.4
20260505034103 61 200 0.0 0.0 0.00 0.00 0.00 74 1012.5
20260505033603 61 200 0.0 0.0 0.00 0.00 0.00 73 1012.5
20260505033103 61 200 0.0 0.0 0.00 0.00 0.00 73 1012.5
20260505032603 61 200 0.0 0.0 0.00 0.00 0.00 72 1012.5
20260505031603 62 200 0.0 0.0 0.00 0.00 0.00 71 1012.5
20260505031104 62 200 0.0 0.0 0.00 0.00 0.00 71 1012.5
20260505030103 62 200 0.0 0.0 0.00 0.00 0.00 69 1012.5
20260505025603 62 200 0.0 0.0 0.00 0.00 0.00 69 1012.5
20260505025104 62 200 0.0 0.0 0.00 0.00 0.00 69 1012.5
20260505024603 63 200 0.0 0.0 0.00 0.00 0.00 69 1012.5
20260505024103 63 200 0.0 0.0 0.00 0.00 0.00 67 1012.4
20260505023603 63 200 0.0 0.0 0.00 0.00 0.00 67 1012.4
20260505023103 63 200 0.0 0.0 0.00 0.00 0.00 66 1012.4
20260505022603 64 200 0.0 0.0 0.00 0.00 0.00 66 1012.4
20260505022103 64 200 0.0 0.0 0.00 0.00 0.00 65 1012.4
20260505021604 64 200 0.0 0.0 0.00 0.00 0.00 65 1012.3
20260505021103 64 200 0.0 0.0 0.00 0.00 0.00 64 1012.3
20260505020603 65 200 0.0 0.0 0.00 0.00 0.00 63 1012.2
20260505015603 66 200 0.0 0.0 0.00 0.00 0.00 62 1012.1
20260505015104 66 200 0.0 1.0 0.00 0.00 0.00 61 1012.1
20260505014603 66 200 0.0 0.0 0.00 0.00 0.00 60 1012.0
20260505014103 67 200 0.0 1.0 0.00 0.00 0.00 59 1012.0
20260505013603 67 200 0.0 1.0 0.00 0.00 0.00 58 1012.0
20260505013104 68 200 0.0 0.0 0.00 0.00 0.00 57 1012.0
20260505011603 69 200 0.0 0.0 0.00 0.00 0.00 53 1012.0
20260505011103 70 200 0.0 0.0 0.00 0.00 0.00 52 1012.0
20260505010603 70 200 0.0 0.0 0.00 0.00 0.00 51 1011.9
20260505010104 71 200 0.0 0.0 0.00 0.00 0.00 51 1011.9
20260505005603 71 200 0.0 0.0 0.00 0.00 0.00 50 1011.8
20260505005104 72 200 0.0 0.0 0.00 0.00 0.00 49 1011.8
20260505003603 73 200 0.0 1.0 0.00 0.00 0.00 45 1011.6
20260505003104 73 200 0.0 1.0 0.00 0.00 0.00 45 1011.7
20260505002603 74 200 0.0 1.0 0.00 0.00 0.00 45 1011.6
20260505002103 74 200 0.0 2.0 0.00 0.00 0.00 44 1011.6
20260505001103 74 200 0.0 1.0 0.00 0.00 0.00 44 1011.5
20260505000103 75 200 0.0 2.0 0.00 0.00 0.00 42 1011.5
20260504235604 75 217 0.0 2.0 0.00 0.00 0.00 42 1011.5
20260504234604 75 213 1.0 2.0 0.00 0.00 0.00 40 1011.5
20260504234103 76 116 2.0 5.0 0.00 0.00 0.00 40 1011.5
20260504233603 76 265 1.0 3.0 0.00 0.00 0.00 40 1011.5
20260504233103 76 254 1.0 3.0 0.00 0.00 0.00 40 1011.5
20260504232603 76 274 2.0 7.0 0.00 0.00 0.00 40 1011.6
20260504232103 77 200 1.0 2.0 0.00 0.00 0.00 41 1011.6
20260504231604 77 242 0.0 3.0 0.00 0.00 0.00 41 1011.6
20260504231104 77 192 1.0 5.0 0.00 0.00 0.00 41 1011.6
20260504230603 77 265 1.0 3.0 0.00 0.00 0.00 41 1011.5
20260504225103 77 259 1.0 3.0 0.00 0.00 0.00 41 1011.6
20260504224603 77 165 1.0 3.0 0.00 0.00 0.00 41 1011.6
20260504224103 78 285 2.0 3.0 0.00 0.00 0.00 41 1011.7
20260504223104 78 345 2.0 3.0 0.00 0.00 0.00 42 1011.8
20260504222103 78 269 2.0 6.0 0.00 0.00 0.00 38 1011.9
20260504221603 78 261 1.0 6.0 0.00 0.00 0.00 38 1012.0
20260504221103 79 201 1.0 3.0 0.00 0.00 0.00 38 1011.9
20260504220604 79 278 2.0 3.0 0.00 0.00 0.00 38 1012.0
20260504220104 79 118 2.0 3.0 0.00 0.00 0.00 41 1011.9
20260504215103 80 246 1.0 3.0 0.00 0.00 0.00 40 1011.9
20260504214603 80 311 0.0 3.0 0.00 0.00 0.00 39 1011.9
20260504214104 81 268 1.0 6.0 0.00 0.00 0.00 38 1011.9
20260504213603 81 266 1.0 3.0 0.00 0.00 0.00 37 1011.9
20260504213103 81 269 2.0 3.0 0.00 0.00 0.00 38 1011.9
20260504212603 81 77 1.0 3.0 0.00 0.00 0.00 39 1011.9
20260504212104 81 171 1.0 8.0 0.00 0.00 0.00 38 1011.9
20260504211604 81 241 1.0 3.0 0.00 0.00 0.00 39 1011.9
20260504210603 81 272 2.0 6.0 0.00 0.00 0.00 37 1012.0
20260504205602 82 306 1.0 3.0 0.00 0.00 0.00 37 1012.1
20260504205102 82 203 1.0 3.0 0.00 0.00 0.00 36 1012.1
20260504204602 82 85 2.0 3.0 0.00 0.00 0.00 36 1012.2
20260504204103 81 217 1.0 3.0 0.00 0.00 0.00 38 1012.3
20260504203602 81 214 1.0 2.0 0.00 0.00 0.00 40 1012.2
20260504203103 81 100 2.0 7.0 0.00 0.00 0.00 40 1012.3
20260504202102 81 271 3.0 6.0 0.00 0.00 0.00 38 1012.5
20260504201602 82 48 1.0 3.0 0.00 0.00 0.00 40 1012.5
20260504200603 81 103 2.0 9.0 0.00 0.00 0.00 40 1012.5
20260504195603 82 288 1.0 3.0 0.00 0.00 0.00 40 1012.6
20260504195103 82 288 1.0 3.0 0.00 0.00 0.00 40 1012.6
20260504194602 82 150 1.0 3.0 0.00 0.00 0.00 43 1012.7
20260504194102 81 123 1.0 3.0 0.00 0.00 0.00 45 1012.8
20260504193603 81 198 1.0 3.0 0.00 0.00 0.00 42 1012.8
20260504192603 80 256 2.0 7.0 0.00 0.00 0.00 44 1013.1
20260504191602 80 315 0.0 6.0 0.00 0.00 0.00 43 1013.2
20260504191102 80 119 2.0 7.0 0.00 0.00 0.00 45 1013.3
20260504185602 79 124 1.0 5.0 0.00 0.00 0.00 46 1013.6
20260504185104 79 193 2.0 6.0 0.00 0.00 0.00 45 1013.7
20260504184103 78 264 1.0 3.0 0.00 0.00 0.00 46 1013.8
20260504183603 78 259 2.0 7.0 0.00 0.00 0.00 47 1013.8
20260504183103 78 266 1.0 3.0 0.00 0.00 0.00 46 1013.9
20260504182602 78 267 1.0 3.0 0.00 0.00 0.00 47 1013.9
20260504182103 78 275 3.0 7.0 0.00 0.00 0.00 44 1014.0
20260504181603 79 252 1.0 2.0 0.00 0.00 0.00 46 1014.2
20260504181103 79 256 2.0 6.0 0.00 0.00 0.00 45 1014.2
20260504180602 79 123 1.0 3.0 0.00 0.00 0.00 45 1014.2
20260504180103 78 239 1.0 3.0 0.00 0.00 0.00 47 1014.3
20260504175603 78 273 0.0 2.0 0.00 0.00 0.00 48 1014.2
20260504174602 78 270 1.0 3.0 0.00 0.00 0.00 46 1014.5
20260504174102 77 279 1.0 3.0 0.00 0.00 0.00 48 1014.6